Regional Weather Roundup
Issued by NWS

Home | Current Version | Previous Version | Graphics & Text | Print | Product List | Glossary On
Versions: 1 2 3 4 5 6 7 8 9 10 11 12 13 14 15 16 17 18 19 20 21 22 23 24 25 26 27 28 29 30 31 32 33 34 35 36 37 38 39 40 41 42 43 44 45 46 47 48 49 50
000
ASUS45 KTFX 051010
RWRMT
MONTANA REGIONAL WEATHER ROUNDUP
NATIONAL WEATHER SERVICE GREAT FALLS MT
400 AM MDT SAT SEP 05 2015

NOTE: "FAIR" INDICATES FEW OR NO CLOUDS BELOW 12000 FEET WITH NO
SIGNIFICANT WEATHER AND/OR OBSTRUCTIONS TO VISIBILITY.

MTZ001>007-043-051100-
WEST OF THE DIVIDE

CITY           SKY/WX    TMP DP  RH WIND       PRES   REMARKS
KALISPELL      LGT RAIN  54  38  54 N15G23    29.84F
MISSOULA       CLOUDY    54  42  64 SE18      29.82F
BUTTE          CLOUDY    44  42  93 W7        29.92R
MULLAN PASS    CLOUDY    39  39 100 SE8       29.87R FOG
EUREKA           N/A     52  37  58 NW3       29.91F
HAMILTON         N/A     50  46  87 S9        29.85R
LIBBY            N/A     48  45  87 SE3       29.90R
$$

MTZ008-052>055-051100-
SOUTHWEST MONTANA

CITY           SKY/WX    TMP DP  RH WIND       PRES   REMARKS
BOZEMAN          N/A     44  43  96 SE3       29.85R FOG
DILLON         CLOUDY    49  44  83 W3        29.88R
W YELLOWSTONE  MOCLDY    41  41 100 W5        29.92R
$$

MTZ009-010-012-014-046-048-049-054-051100-
EAST SLOPES AND CENTRAL MONTANA

CITY           SKY/WX    TMP DP  RH WIND       PRES   REMARKS
CUT BANK       RAIN      44  43  96 N10       29.99F FOG
GREAT FALLS    CLOUDY    48  48 100 N10       29.92F VSB 1/4
MALMSTROM AFB  CLOUDY    49  49  99 N13       29.93F
HELENA         CLOUDY    49  44  83 W5        29.90S
CONRAD           N/A     46  46 100 W2        30.01
$$

MTZ011-013-016-021-045-047-050-051-051100-
NORTH CENTRAL MONTANA

CITY           SKY/WX    TMP DP  RH WIND       PRES   REMARKS
HAVRE          LGT RAIN  48  47  96 NE14      29.99R
LEWISTOWN      CLOUDY    50  47  89 SE6       29.91F
N BAR RANCH    CLOUDY    48  46  93 E12       29.93F
CHINOOK          N/A     50  48  93 E6        29.98F
$$

MTZ017>020-022>027-061-062-051100-
NORTHEAST MONTANA

CITY           SKY/WX    TMP DP  RH WIND       PRES   REMARKS
GLASGOW        CLOUDY    52  48  86 NE21      29.89S
JORDAN           N/A     55  49  80 NE13      29.89S
SIDNEY         CLOUDY    59  55  88 N16         N/A
WOLF POINT     CLOUDY    58  47  66 NE10      29.92R
MALTA            N/A     51  45  80 N9        29.93F
PLENTYWOOD       N/A     54  52  94 N14       29.91F
POPLAR           N/A     54  52  94 N10       29.91R
$$

MTZ028>42-056>058-051100-
SOUTHCENTRAL AND SOUTHEAST MONTANA

CITY           SKY/WX    TMP DP  RH WIND       PRES   REMARKS
BAKER          MOCLDY    62  32  32 CALM      29.82R
BILLINGS       CLOUDY    53  48  83 N7        29.92F
LIVINGSTON     CLOUDY    51  48  89 E18       29.88F
MILES CITY     CLOUDY    62  59  90 NE12      29.84R
EKALAKA          N/A     65  56  72 SE10      29.82F
FORSYTH          N/A     59  52  77 N7        29.86S
LAUREL           N/A     53  47  80 NW1       29.91F
$$

REGIONAL REPORTS...DAKOTAS

CITY           SKY/WX    TMP DP  RH WIND       PRES   REMARKS
WILLISTON      CLOUDY    59  57  93 N15       29.87F
MINOT          CLOUDY    61  58  90 CALM      29.93R
DICKINSON        N/A     62  60  93 NE13      29.84
CROSBY         RAIN      54  54 100 NE14      29.92F
BISMARCK       FOG       69  69 100 NW8       29.85R VSB 3/4
GRAND FORKS    CLOUDY    64  64 100 N12       29.87F FOG
FARGO          PTCLDY    69  67  93 N6        29.84S
BUFFALO SD       N/A     64  60  87 NE18      29.76F
RAPID CITY     LGT RAIN  66  61  84 N14       29.82R
$$

REGIONAL REPORTS...WYOMING/IDAHO/WASHINGTON

CITY           SKY/WX    TMP DP  RH WIND       PRES   REMARKS
GILLETTE       PTCLDY    53  51  93 W3        29.87S
SHERIDAN       CLOUDY    54  48  80 NW6       29.89F
BUFFALO WY     CLEAR     56  48  74 CALM      29.92F
CODY           PTCLDY    48  46  93 CALM      29.94S
YELLOWSTONE LA   N/A     46  43  89 VRB5      30.04F
IDAHO FALLS    CLEAR     51  37  58 S18       29.87R
SALMON         CLOUDY    48  46  93 E5        29.85S
BOISE            N/A     48  41  76 CALM      29.93R
SPOKANE        LGT RAIN  52  45  77 S8        29.82R
$$

REGIONAL REPORTS...ALBERTA

CITY           SKY/WX    TMP DP  RH WIND       PRES   REMARKS
EDMONTON       MOCLDY    41  37  87 CALM      30.17R
CALGARY        LGT RAIN  43  41  93 N6        30.12F FOG
LETHBRIDGE     LGT RAIN  45  43  93 NE15G22   30.03S
MEDICINE HAT   CLOUDY    48  46  93 NE9       30.04S
WATERTON GATE    N/A     39  37  93 N2          N/A
CARDSTON         N/A     43  41  93 NW3         N/A
ONEFOUR          N/A     46  45  93 E13         N/A
$$

REGIONAL REPORTS...SASKATCHEWAN

CITY           SKY/WX    TMP DP  RH WIND       PRES   REMARKS
SWIFT CURRENT  CLOUDY    48 N/A N/A N9        30.05S
REGINA         TSTM      52  48  87 NW5       30.04R
SASKATOON      CLOUDY    50  45  81 NE12      30.12F
CYPRESS HILLS    N/A     41  39  93 NE10        N/A
ROCKGLEN         N/A     46  46 100 N10         N/A
ASSINIBOIA       N/A     32  32 100 NW5         N/A
$$



USA.gov is the U.S. government's official web portal to all federal, state and local government web resources and services.